Home   Weather   United Kingdom   Oldham   Past weeks
Flag for United Kingdom

Past Weather in Oldham, England, United Kingdom — Yesterday and Last 2 Weeks

Currently: 48 °F. Overcast. (Weather station: Manchester Airport, United Kingdom). See more current weather

Past Weather in Oldham — Graph

°F

Oldham Temperature Yesterday

Maximum temperature yesterday: 54 °F (at 1:50 pm)
Minimum temperature yesterday: 48 °F (at 8:50 am)
Average temperature yesterday: 50 °F

High & Low Weather Summary for the Past Weeks

 TemperatureHumidityPressure
High54 °F (Feb 3, 1:50 pm)100% (Jan 20, 11:20 pm)30.69 "Hg (Jan 20, 11:20 pm)
Low25 °F (Jan 21, 4:20 am)66% (Jan 20, 12:50 pm)30.07 "Hg (Jan 29, 8:20 pm)
Average42 °F84%30.40 "Hg
* Reported Jan 20 12:20 pm — Feb 4 12:20 pm, Oldham. Weather by CustomWeather, © 2023

Note: Actual official high and low records may vary slightly from our data, if they occured in-between our weather recording intervals... More about our weather records

Oldham Weather History for the Previous 24 Hours

Scroll right to see more
 ConditionsComfort  
Time TempWeatherWind HumidityBarometerVisibility
12:20 pm
Sat, Feb 4
48 °FOvercast.7 mph82%30.60 "HgN/A
11:50 am46 °FMore clouds than sun.8 mph87%30.60 "HgN/A
11:20 am46 °FOvercast.6 mph82%30.60 "HgN/A
10:50 am46 °FOvercast.7 mph82%30.60 "HgN/A
10:20 am48 °FPartly sunny.8 mph76%30.60 "HgN/A
9:20 am46 °FPartly sunny.6 mph82%30.60 "HgN/A
8:50 am46 °FPartly sunny.6 mph76%30.60 "HgN/A
8:20 am46 °FOvercast.7 mph82%30.60 "HgN/A
7:50 am46 °FPartly sunny.3 mph82%30.57 "HgN/A
7:20 am46 °FPassing clouds.3 mph82%30.57 "HgN/A
6:50 am46 °FPassing clouds.3 mph87%30.57 "HgN/A
5:50 am46 °FOvercast.3 mph93%30.57 "HgN/A
5:20 am46 °FOvercast.5 mph93%30.57 "HgN/A
4:50 am46 °FOvercast.5 mph93%30.54 "HgN/A
4:20 am46 °FOvercast.3 mph93%30.54 "HgN/A
3:50 am46 °FOvercast.3 mph93%30.54 "HgN/A
3:20 am46 °FOvercast.3 mph93%30.54 "HgN/A
2:50 am46 °FOvercast.5 mph93%30.54 "HgN/A
2:20 am46 °FOvercast.3 mph93%30.54 "HgN/A
1:50 am48 °FOvercast.3 mph87%30.54 "HgN/A
1:20 am46 °FOvercast.3 mph93%30.54 "HgN/A
12:50 am48 °FOvercast.5 mph87%30.54 "HgN/A
11:20 pm
Fri, Feb 3
48 °FOvercast.3 mph87%30.54 "HgN/A
10:50 pm48 °FOvercast.3 mph87%30.51 "HgN/A
10:20 pm48 °FOvercast.5 mph82%30.51 "HgN/A
9:50 pm48 °FOvercast.3 mph82%30.51 "HgN/A
9:20 pm48 °FOvercast.3 mph82%30.51 "HgN/A
8:50 pm48 °FOvercast.2 mph82%30.51 "HgN/A
8:20 pm48 °FOvercast.3 mph87%30.51 "HgN/A
7:50 pm48 °FOvercast.6 mph87%30.48 "HgN/A
7:20 pm48 °FOvercast.5 mph87%30.48 "HgN/A
6:50 pm50 °FOvercast.6 mph82%30.48 "HgN/A
5:50 pm52 °FMostly cloudy.8 mph72%30.48 "HgN/A
5:20 pm52 °FOvercast.10 mph72%30.48 "HgN/A
4:50 pm52 °FOvercast.13 mph72%30.48 "HgN/A
4:20 pm52 °FPartly sunny.12 mph77%30.45 "HgN/A
3:50 pm52 °FScattered showers. Partly sunny.12 mph77%30.45 "HgN/A
3:20 pm52 °FPartly sunny.14 mph82%30.45 "HgN/A
2:50 pm52 °FPartly sunny.14 mph82%30.45 "HgN/A
2:20 pm52 °FPartly sunny.13 mph82%30.42 "HgN/A
1:50 pm54 °FPartly sunny.13 mph77%30.42 "HgN/A
1:20 pm52 °FPartly sunny.14 mph88%30.42 "HgN/A
Weather by CustomWeather, © 2023

See weather overview